Location: Antoign�
(47.0844°N, 0.1131°W)
Time: 03:44:06
(UTC+00:00)

H-2A R/B - Pass Details

Date: 03 March 2021
Orbit: 577 x 654 km, 98.5° (Epoch: 16 April)

Event Time Altitude Azimuth Distance (km) Brightness Sun altitude
Rises 18:31:16 0° 5° (N) 2,808 5.4 -8.0°
Reaches altitude 10° 18:33:34 10° 356° (N) 1,902 4.6 -8.4°
Maximum altitude 18:37:14 32° 293° (WNW) 1,002 3.9 -9.0°
Drops below altitude 10° 18:40:54 10° 230° (SW) 1,896 5.3 -9.6°
Sets 18:43:12 0° 220° (SW) 2,797 6.0 -10.0°
